Вернуться в каталог

STARLINK-31184

АктивенСвязьVLEO
NORAD 58793·PAYLOAD·🇺🇸 United States

Запущен Jan 15, 2024 с Cape Canaveral Space Force Station

Loading…

Ближайшие Пролёты (ближайшие 24 часа)

TLE

СвежийSource: CelesTrak SupGP

Эпоха: Sep 14, 2026, 21:34 UTC

1 58793C 24012G   26257.89909722 -.00024234  00000+0 -87773-3 0  2577
2 58793  43.0016 176.4683 0001281 264.1318 172.0941 15.27591918    13

Отслеживайте STARLINK-31184 в реальном времени с AllMySat

Download on the App Store